owner,sensor,date,latitude,longitude,vertical_datum,direction_of_sea_water_velocity,sea_water_speed,upward_sea_water_velocity,qcFlag 
TABS,ioos:station:wmo:42051:1,2003-02-01T00:00:00Z,29.6350,-93.6417,2.0,235.7462219,20.59146668,-99999.0,'11111222,11111222,99999999' 
TABS,ioos:station:wmo:42051:1,2003-02-01T00:30:00Z,29.6350,-93.6417,2.0,234.9189007,18.51302514,-99999.0,'11111222,11111222,99999999' 
TABS,ioos:station:wmo:42051:1,2003-02-01T01:00:00Z,29.6350,-93.6417,2.0,236.2478494,20.59048324,-99999.0,'11111222,11111222,99999999' 
TABS,ioos:station:wmo:42051:1,2003-02-01T01:30:00Z,29.6350,-93.6417,2.0,245.1366543,17.76669074,-99999.0,'11111222,11111222,99999999' 
TABS,ioos:station:wmo:42051:1,2003-02-01T02:00:00Z,29.6350,-93.6417,2.0,244.2975378,12.1745349,-99999.0,'11111222,11111222,99999999' 
TABS,ioos:station:wmo:42051:1,2003-02-01T02:30:00Z,29.6350,-93.6417,2.0,244.0555681,15.68022959,-99999.0,'11111222,11111222,99999999' 
TABS,ioos:station:wmo:42051:1,2003-02-01T03:00:00Z,29.6350,-93.6417,2.0,248.0113051,18.21495265,-99999.0,'11111222,11111222,99999999' 
TABS,ioos:station:wmo:42051:1,2003-02-01T03:30:00Z,29.6350,-93.6417,2.0,257.3332206,18.97170788,-99999.0,'11111222,11111222,99999999' 
TABS,ioos:station:wmo:42051:1,2003-02-01T04:00:00Z,29.6350,-93.6417,2.0,256.7590901,23.22745143,-99999.0,'11111222,11111222,99999999' 
TABS,ioos:station:wmo:42051:1,2003-02-01T04:30:00Z,29.6350,-93.6417,2.0,246.3976522,22.75334261,-99999.0,'11111222,11111222,99999999' 
TABS,ioos:station:wmo:42051:1,2003-02-01T05:00:00Z,29.6350,-93.6417,2.0,246.5709411,24.19471843,-99999.0,'11111222,11111222,99999999' 
TABS,ioos:station:wmo:42051:1,2003-02-01T05:30:00Z,29.6350,-93.6417,2.0,258.1571374,22.9995326,-99999.0,'11111222,11111222,99999999' 
TABS,ioos:station:wmo:42051:1,2003-02-01T06:00:00Z,29.6350,-93.6417,2.0,267.261439,25.32891826,-99999.0,'11111222,11111222,99999999' 
TABS,ioos:station:wmo:42051:1,2003-02-01T06:30:00Z,29.6350,-93.6417,2.0,251.3081368,28.95726679,-99999.0,'11111222,11111222,99999999' 
TABS,ioos:station:wmo:42051:1,2003-02-01T07:00:00Z,29.6350,-93.6417,2.0,256.3013919,27.95514264,-99999.0,'11111222,11111222,99999999' 
TABS,ioos:station:wmo:42051:1,2003-02-01T07:30:00Z,29.6350,-93.6417,2.0,250.3445225,30.14650394,-99999.0,'11111222,11111222,99999999' 
TABS,ioos:station:wmo:42051:1,2003-02-01T08:00:00Z,29.6350,-93.6417,2.0,249.2453453,26.72416509,-99999.0,'11111222,11111222,99999999' 
TABS,ioos:station:wmo:42051:1,2003-02-01T08:30:00Z,29.6350,-93.6417,2.0,249.4806819,25.30547174,-99999.0,'11111222,11111222,99999999' 
TABS,ioos:station:wmo:42051:1,2003-02-01T09:00:00Z,29.6350,-93.6417,2.0,252.7597763,23.34901283,-99999.0,'11111222,11111222,99999999' 
TABS,ioos:station:wmo:42051:1,2003-02-01T09:30:00Z,29.6350,-93.6417,2.0,263.4937725,25.59482174,-99999.0,'11111222,11111222,99999999' 
TABS,ioos:station:wmo:42051:1,2003-02-01T10:00:00Z,29.6350,-93.6417,2.0,263.0131082,25.65045809,-99999.0,'11111222,11111222,99999999' 
TABS,ioos:station:wmo:42051:1,2003-02-01T10:30:00Z,29.6350,-93.6417,2.0,252.2942414,21.10991473,-99999.0,'11111222,11111222,99999999' 
TABS,ioos:station:wmo:42051:1,2003-02-01T11:00:00Z,29.6350,-93.6417,2.0,281.3976273,29.60376496,-99999.0,'11111222,11111222,99999999' 
TABS,ioos:station:wmo:42051:1,2003-02-01T11:30:00Z,29.6350,-93.6417,2.0,270.2911457,25.62032982,-99999.0,'11111222,11111222,99999999' 
TABS,ioos:station:wmo:42051:1,2003-02-01T12:00:00Z,29.6350,-93.6417,2.0,272.7863326,24.68917982,-99999.0,'11111222,11111222,99999999' 
TABS,ioos:station:wmo:42051:1,2003-02-01T12:30:00Z,29.6350,-93.6417,2.0,257.1574895,22.81057869,-99999.0,'11111222,11111222,99999999' 
TABS,ioos:station:wmo:42051:1,2003-02-01T13:00:00Z,29.6350,-93.6417,2.0,253.363221,20.95725173,-99999.0,'11111222,11111222,99999999' 
TABS,ioos:station:wmo:42051:1,2003-02-01T13:30:00Z,29.6350,-93.6417,2.0,267.471905,21.54095866,-99999.0,'11111222,11111222,99999999' 
TABS,ioos:station:wmo:42051:1,2003-02-01T14:00:00Z,29.6350,-93.6417,2.0,268.7125893,19.14482959,-99999.0,'11111222,11111222,99999999' 
TABS,ioos:station:wmo:42051:1,2003-02-01T14:30:00Z,29.6350,-93.6417,2.0,286.8970795,17.78789757,-99999.0,'11111222,11111222,99999999' 
TABS,ioos:station:wmo:42051:1,2003-02-01T15:00:00Z,29.6350,-93.6417,2.0,264.0273911,18.74172084,-99999.0,'11111222,11111222,99999999' 
TABS,ioos:station:wmo:42051:1,2003-02-01T15:30:00Z,29.6350,-93.6417,2.0,283.5970572,13.90982746,-99999.0,'11111222,11111222,99999999' 
TABS,ioos:station:wmo:42051:1,2003-02-01T16:00:00Z,29.6350,-93.6417,2.0,270.7302623,12.56101907,-99999.0,'11111222,11111222,99999999' 
TABS,ioos:station:wmo:42051:1,2003-02-01T16:30:00Z,29.6350,-93.6417,2.0,269.0811538,18.09232434,-99999.0,'11111222,11111222,99999999' 
TABS,ioos:station:wmo:42051:1,2003-02-01T17:00:00Z,29.6350,-93.6417,2.0,271.8012394,21.32053001,-99999.0,'11111222,11111222,99999999' 
TABS,ioos:station:wmo:42051:1,2003-02-01T17:30:00Z,29.6350,-93.6417,2.0,266.8974824,19.21816068,-99999.0,'11111222,11111222,99999999' 
TABS,ioos:station:wmo:42051:1,2003-02-01T18:00:00Z,29.6350,-93.6417,2.0,264.6837242,20.07634678,-99999.0,'11111222,11111222,99999999' 
TABS,ioos:station:wmo:42051:1,2003-02-01T18:30:00Z,29.6350,-93.6417,2.0,276.4842735,16.2942229,-99999.0,'11111222,11111222,99999999' 
TABS,ioos:station:wmo:42051:1,2003-02-01T19:00:00Z,29.6350,-93.6417,2.0,258.4830436,15.22655575,-99999.0,'11111222,11111222,99999999' 
TABS,ioos:station:wmo:42051:1,2003-02-01T19:30:00Z,29.6350,-93.6417,2.0,256.1671406,15.68487807,-99999.0,'11111222,11111222,99999999' 
TABS,ioos:station:wmo:42051:1,2003-02-01T20:00:00Z,29.6350,-93.6417,2.0,251.9681572,17.9621825,-99999.0,'11111222,11111222,99999999' 
TABS,ioos:station:wmo:42051:1,2003-02-01T20:30:00Z,29.6350,-93.6417,2.0,274.8097616,22.90062881,-99999.0,'11111222,11111222,99999999' 
TABS,ioos:station:wmo:42051:1,2003-02-01T21:00:00Z,29.6350,-93.6417,2.0,275.1458671,23.30390954,-99999.0,'11111222,11111222,99999999' 
TABS,ioos:station:wmo:42051:1,2003-02-01T21:30:00Z,29.6350,-93.6417,2.0,244.4993962,20.69614698,-99999.0,'11111222,11111222,99999999' 
TABS,ioos:station:wmo:42051:1,2003-02-01T22:00:00Z,29.6350,-93.6417,2.0,243.2437245,21.47978817,-99999.0,'11111222,11111222,99999999' 
TABS,ioos:station:wmo:42051:1,2003-02-01T22:30:00Z,29.6350,-93.6417,2.0,240.1278513,20.15817452,-99999.0,'11111222,11111222,99999999' 
TABS,ioos:station:wmo:42051:1,2003-02-01T23:30:00Z,29.6350,-93.6417,2.0,234.2890664,22.34057296,-99999.0,'11111222,11111222,99999999' 
TABS,ioos:station:wmo:42051:1,2003-02-02T00:00:00Z,29.6350,-93.6417,2.0,241.1157632,19.23251674,-99999.0,'11111222,11111222,99999999' 
TABS,ioos:station:wmo:42051:1,2003-02-02T00:30:00Z,29.6350,-93.6417,2.0,239.035895,21.10804586,-99999.0,'11111222,11111222,99999999' 
TABS,ioos:station:wmo:42051:1,2003-02-02T01:00:00Z,29.6350,-93.6417,2.0,241.5929208,20.87329634,-99999.0,'11111222,11111222,99999999' 
TABS,ioos:station:wmo:42051:1,2003-02-02T01:30:00Z,29.6350,-93.6417,2.0,237.3540501,23.43165594,-99999.0,'11111222,11111222,99999999' 
TABS,ioos:station:wmo:42051:1,2003-02-02T02:00:00Z,29.6350,-93.6417,2.0,260.3651792,13.68298944,-99999.0,'11111222,11111222,99999999' 
TABS,ioos:station:wmo:42051:1,2003-02-02T02:30:00Z,29.6350,-93.6417,2.0,267.9153725,6.324183742,-99999.0,'11133222,11111222,99999999' 
TABS,ioos:station:wmo:42051:1,2003-02-02T03:00:00Z,29.6350,-93.6417,2.0,249.9290251,11.18953529,-99999.0,'11111222,11111222,99999999' 
TABS,ioos:station:wmo:42051:1,2003-02-02T03:30:00Z,29.6350,-93.6417,2.0,247.9952469,13.10460225,-99999.0,'11111222,11111222,99999999' 
TABS,ioos:station:wmo:42051:1,2003-02-02T04:00:00Z,29.6350,-93.6417,2.0,241.817606,10.46001912,-99999.0,'11111222,11111222,99999999' 
TABS,ioos:station:wmo:42051:1,2003-02-02T04:30:00Z,29.6350,-93.6417,2.0,237.8543029,9.979909819,-99999.0,'11133222,11111222,99999999' 
TABS,ioos:station:wmo:42051:1,2003-02-02T05:00:00Z,29.6350,-93.6417,2.0,248.0710737,13.38866685,-99999.0,'11111222,11111222,99999999' 
TABS,ioos:station:wmo:42051:1,2003-02-02T05:30:00Z,29.6350,-93.6417,2.0,249.9458163,18.69335978,-99999.0,'11111222,11111222,99999999' 
TABS,ioos:station:wmo:42051:1,2003-02-02T06:00:00Z,29.6350,-93.6417,2.0,242.5990482,13.49386898,-99999.0,'11111222,11111222,99999999' 
TABS,ioos:station:wmo:42051:1,2003-02-02T06:30:00Z,29.6350,-93.6417,2.0,251.6431451,16.16241628,-99999.0,'11111222,11111222,99999999' 
TABS,ioos:station:wmo:42051:1,2003-02-02T07:00:00Z,29.6350,-93.6417,2.0,237.275681,15.29803255,-99999.0,'11111222,11111222,99999999' 
TABS,ioos:station:wmo:42051:1,2003-02-02T07:30:00Z,29.6350,-93.6417,2.0,238.5170903,17.42497059,-99999.0,'11111222,11111222,99999999' 
TABS,ioos:station:wmo:42051:1,2003-02-02T08:00:00Z,29.6350,-93.6417,2.0,240.707573,17.10740483,-99999.0,'11111222,11111222,99999999' 
TABS,ioos:station:wmo:42051:1,2003-02-02T08:30:00Z,29.6350,-93.6417,2.0,229.0518235,18.11185523,-99999.0,'11111222,11111222,99999999' 
TABS,ioos:station:wmo:42051:1,2003-02-02T09:00:00Z,29.6350,-93.6417,2.0,228.1875406,16.78440347,-99999.0,'11111222,11111222,99999999' 
TABS,ioos:station:wmo:42051:1,2003-02-02T09:30:00Z,29.6350,-93.6417,2.0,213.3297161,10.5922094,-99999.0,'11111222,11111222,99999999' 
TABS,ioos:station:wmo:42051:1,2003-02-02T10:00:00Z,29.6350,-93.6417,2.0,215.2146316,10.31830412,-99999.0,'11111222,11111222,99999999' 
TABS,ioos:station:wmo:42051:1,2003-02-02T10:30:00Z,29.6350,-93.6417,2.0,203.0153632,10.69102427,-99999.0,'11111222,11111222,99999999' 
TABS,ioos:station:wmo:42051:1,2003-02-02T11:00:00Z,29.6350,-93.6417,2.0,236.4133162,12.25612092,-99999.0,'11111222,11111222,99999999' 
TABS,ioos:station:wmo:42051:1,2003-02-02T11:30:00Z,29.6350,-93.6417,2.0,238.43939,13.50796062,-99999.0,'11111222,11111222,99999999' 
TABS,ioos:station:wmo:42051:1,2003-02-02T12:00:00Z,29.6350,-93.6417,2.0,247.1181622,11.62473656,-99999.0,'11111222,11111222,99999999' 
TABS,ioos:station:wmo:42051:1,2003-02-02T12:30:00Z,29.6350,-93.6417,2.0,261.16923,8.794236749,-99999.0,'11133222,11111222,99999999' 
TABS,ioos:station:wmo:42051:1,2003-02-02T13:00:00Z,29.6350,-93.6417,2.0,241.7512653,11.11358178,-99999.0,'11111222,11111222,99999999' 
TABS,ioos:station:wmo:42051:1,2003-02-02T13:30:00Z,29.6350,-93.6417,2.0,252.2663724,9.553957295,-99999.0,'11133222,11111222,99999999' 
TABS,ioos:station:wmo:42051:1,2003-02-02T14:00:00Z,29.6350,-93.6417,2.0,190.3756102,7.93983627,-99999.0,'11133222,11111222,99999999' 
TABS,ioos:station:wmo:42051:1,2003-02-02T14:30:00Z,29.6350,-93.6417,2.0,220.5364671,4.815859217,-99999.0,'11133222,11111222,99999999' 
TABS,ioos:station:wmo:42051:1,2003-02-02T15:00:00Z,29.6350,-93.6417,2.0,194.6032653,8.329081582,-99999.0,'11133222,11111222,99999999' 
TABS,ioos:station:wmo:42051:1,2003-02-02T15:30:00Z,29.6350,-93.6417,2.0,212.632475,5.711610981,-99999.0,'11133222,11111222,99999999' 
TABS,ioos:station:wmo:42051:1,2003-02-02T16:00:00Z,29.6350,-93.6417,2.0,226.111362,5.466964423,-99999.0,'11133222,11111222,99999999' 
TABS,ioos:station:wmo:42051:1,2003-02-02T16:30:00Z,29.6350,-93.6417,2.0,213.3260013,8.736704184,-99999.0,'11133222,11111222,99999999' 
TABS,ioos:station:wmo:42051:1,2003-02-02T17:00:00Z,29.6350,-93.6417,2.0,223.3352898,9.981487865,-99999.0,'11133222,11111222,99999999' 
TABS,ioos:station:wmo:42051:1,2003-02-02T17:30:00Z,29.6350,-93.6417,2.0,198.3065173,14.13541651,-99999.0,'11111222,11111222,99999999' 
TABS,ioos:station:wmo:42051:1,2003-02-02T18:00:00Z,29.6350,-93.6417,2.0,202.1212863,10.96733787,-99999.0,'11111222,11111222,99999999' 
TABS,ioos:station:wmo:42051:1,2003-02-02T18:30:00Z,29.6350,-93.6417,2.0,202.4484941,17.25776926,-99999.0,'11111222,11111222,99999999' 
TABS,ioos:station:wmo:42051:1,2003-02-02T19:00:00Z,29.6350,-93.6417,2.0,209.3884327,19.15505416,-99999.0,'11111222,11111222,99999999' 
TABS,ioos:station:wmo:42051:1,2003-02-02T19:30:00Z,29.6350,-93.6417,2.0,210.6617716,20.84422702,-99999.0,'11111222,11111222,99999999' 
TABS,ioos:station:wmo:42051:1,2003-02-02T20:00:00Z,29.6350,-93.6417,2.0,211.0025063,22.65668334,-99999.0,'11111222,11111222,99999999' 
TABS,ioos:station:wmo:42051:1,2003-02-02T20:30:00Z,29.6350,-93.6417,2.0,209.4205822,25.22286661,-99999.0,'11111222,11111222,99999999' 
TABS,ioos:station:wmo:42051:1,2003-02-02T21:00:00Z,29.6350,-93.6417,2.0,210.7931723,22.50242876,-99999.0,'11111222,11111222,99999999' 
TABS,ioos:station:wmo:42051:1,2003-02-02T21:30:00Z,29.6350,-93.6417,2.0,211.9583151,18.17472971,-99999.0,'11111222,11111222,99999999' 
TABS,ioos:station:wmo:42051:1,2003-02-02T22:00:00Z,29.6350,-93.6417,2.0,230.0102964,22.74970989,-99999.0,'11111222,11111222,99999999' 
TABS,ioos:station:wmo:42051:1,2003-02-02T22:30:00Z,29.6350,-93.6417,2.0,229.2996675,23.29402713,-99999.0,'11111222,11111222,99999999' 
TABS,ioos:station:wmo:42051:1,2003-02-02T23:00:00Z,29.6350,-93.6417,2.0,238.3225821,19.42372004,-99999.0,'11111222,11111222,99999999' 
TABS,ioos:station:wmo:42051:1,2003-02-02T23:30:00Z,29.6350,-93.6417,2.0,224.2823306,16.94360646,-99999.0,'11111222,11111222,99999999' 
TABS,ioos:station:wmo:42051:1,2003-02-03T00:00:00Z,29.6350,-93.6417,2.0,212.1529737,14.37467913,-99999.0,'11111222,11111222,99999999' 
TABS,ioos:station:wmo:42051:1,2003-02-03T00:30:00Z,29.6350,-93.6417,2.0,224.6719437,13.59788587,-99999.0,'11111222,11111222,99999999' 
TABS,ioos:station:wmo:42051:1,2003-02-03T01:00:00Z,29.6350,-93.6417,2.0,192.9184777,11.31643937,-99999.0,'11111222,11111222,99999999' 
TABS,ioos:station:wmo:42051:1,2003-02-03T01:30:00Z,29.6350,-93.6417,2.0,204.4837303,15.39430089,-99999.0,'11111222,11111222,99999999' 
TABS,ioos:station:wmo:42051:1,2003-02-03T02:00:00Z,29.6350,-93.6417,2.0,197.484176,12.5812718,-99999.0,'11111222,11111222,99999999' 
TABS,ioos:station:wmo:42051:1,2003-02-03T02:30:00Z,29.6350,-93.6417,2.0,174.9523943,16.93567241,-99999.0,'11111222,11111222,99999999' 
TABS,ioos:station:wmo:42051:1,2003-02-03T03:00:00Z,29.6350,-93.6417,2.0,193.9800474,7.450697954,-99999.0,'11133222,11111222,99999999' 
TABS,ioos:station:wmo:42051:1,2003-02-03T03:30:00Z,29.6350,-93.6417,2.0,198.9667241,9.876218912,-99999.0,'11133222,11111222,99999999' 
TABS,ioos:station:wmo:42051:1,2003-02-03T04:00:00Z,29.6350,-93.6417,2.0,226.5204504,4.795873226,-99999.0,'11133222,11111222,99999999' 
TABS,ioos:station:wmo:42051:1,2003-02-03T04:30:00Z,29.6350,-93.6417,2.0,255.9401671,11.9788355,-99999.0,'11111222,11111222,99999999' 
TABS,ioos:station:wmo:42051:1,2003-02-03T05:00:00Z,29.6350,-93.6417,2.0,191.6869661,8.93524482,-99999.0,'11133222,11111222,99999999' 
TABS,ioos:station:wmo:42051:1,2003-02-03T05:30:00Z,29.6350,-93.6417,2.0,216.062288,16.74966268,-99999.0,'11111222,11111222,99999999' 
TABS,ioos:station:wmo:42051:1,2003-02-03T06:00:00Z,29.6350,-93.6417,2.0,208.485559,16.14453778,-99999.0,'11111222,11111222,99999999' 
TABS,ioos:station:wmo:42051:1,2003-02-03T06:30:00Z,29.6350,-93.6417,2.0,179.2990624,17.17128417,-99999.0,'11111222,11111222,99999999' 
TABS,ioos:station:wmo:42051:1,2003-02-03T07:00:00Z,29.6350,-93.6417,2.0,201.2333761,22.86207558,-99999.0,'11111222,11111222,99999999' 
TABS,ioos:station:wmo:42051:1,2003-02-03T07:30:00Z,29.6350,-93.6417,2.0,214.3330407,18.52815425,-99999.0,'11111222,11111222,99999999' 
TABS,ioos:station:wmo:42051:1,2003-02-03T08:00:00Z,29.6350,-93.6417,2.0,220.9277181,16.92844352,-99999.0,'11111222,11111222,99999999' 
TABS,ioos:station:wmo:42051:1,2003-02-03T08:30:00Z,29.6350,-93.6417,2.0,245.4726753,19.99415164,-99999.0,'11111222,11111222,99999999' 
TABS,ioos:station:wmo:42051:1,2003-02-03T09:00:00Z,29.6350,-93.6417,2.0,249.9173627,20.24061758,-99999.0,'11111222,11111222,99999999' 
TABS,ioos:station:wmo:42051:1,2003-02-03T09:30:00Z,29.6350,-93.6417,2.0,204.44781,11.50123906,-99999.0,'11111222,11111222,99999999' 
TABS,ioos:station:wmo:42051:1,2003-02-03T10:00:00Z,29.6350,-93.6417,2.0,230.6177411,13.50697968,-99999.0,'11111222,11111222,99999999' 
TABS,ioos:station:wmo:42051:1,2003-02-03T10:30:00Z,29.6350,-93.6417,2.0,192.76908,11.62757498,-99999.0,'11111222,11111222,99999999' 
TABS,ioos:station:wmo:42051:1,2003-02-03T11:00:00Z,29.6350,-93.6417,2.0,207.0613442,10.83639239,-99999.0,'11111222,11111222,99999999' 
TABS,ioos:station:wmo:42051:1,2003-02-03T11:30:00Z,29.6350,-93.6417,2.0,188.3706095,10.09757397,-99999.0,'11111222,11111222,99999999' 
TABS,ioos:station:wmo:42051:1,2003-02-03T12:00:00Z,29.6350,-93.6417,2.0,200.3736511,12.15010288,-99999.0,'11111222,11111222,99999999' 
TABS,ioos:station:wmo:42051:1,2003-02-03T12:30:00Z,29.6350,-93.6417,2.0,213.0072036,14.667314,-99999.0,'11111222,11111222,99999999' 
TABS,ioos:station:wmo:42051:1,2003-02-03T13:00:00Z,29.6350,-93.6417,2.0,205.1480416,15.01307763,-99999.0,'11111222,11111222,99999999' 
TABS,ioos:station:wmo:42051:1,2003-02-03T13:30:00Z,29.6350,-93.6417,2.0,197.7580065,9.63929458,-99999.0,'11133222,11111222,99999999' 
TABS,ioos:station:wmo:42051:1,2003-02-03T14:00:00Z,29.6350,-93.6417,2.0,202.2614001,7.628610621,-99999.0,'11133222,11111222,99999999' 
TABS,ioos:station:wmo:42051:1,2003-02-03T14:30:00Z,29.6350,-93.6417,2.0,179.9437821,10.23000489,-99999.0,'11111222,11111222,99999999' 
TABS,ioos:station:wmo:42051:1,2003-02-03T15:00:00Z,29.6350,-93.6417,2.0,189.4803425,10.32096895,-99999.0,'11111222,11111222,99999999' 
TABS,ioos:station:wmo:42051:1,2003-02-03T15:30:00Z,29.6350,-93.6417,2.0,202.098871,9.648860036,-99999.0,'11133222,11111222,99999999' 
TABS,ioos:station:wmo:42051:1,2003-02-03T16:00:00Z,29.6350,-93.6417,2.0,235.7621964,6.096433384,-99999.0,'11133222,11111222,99999999' 
TABS,ioos:station:wmo:42051:1,2003-02-03T16:30:00Z,29.6350,-93.6417,2.0,259.6147451,7.045409853,-99999.0,'11133222,11111222,99999999' 
TABS,ioos:station:wmo:42051:1,2003-02-03T17:00:00Z,29.6350,-93.6417,2.0,283.5852207,4.001962019,-99999.0,'11133222,11111222,99999999' 
TABS,ioos:station:wmo:42051:1,2003-02-03T17:30:00Z,29.6350,-93.6417,2.0,269.4175892,8.860457099,-99999.0,'11133222,11111222,99999999' 
TABS,ioos:station:wmo:42051:1,2003-02-03T18:00:00Z,29.6350,-93.6417,2.0,336.8537848,5.774859306,-99999.0,'11133222,11111222,99999999' 
TABS,ioos:station:wmo:42051:1,2003-02-03T18:30:00Z,29.6350,-93.6417,2.0,32.36421688,10.6669677,-99999.0,'11111222,11111222,99999999' 
TABS,ioos:station:wmo:42051:1,2003-02-03T19:00:00Z,29.6350,-93.6417,2.0,48.58246681,4.187182824,-99999.0,'11133222,11111222,99999999' 
TABS,ioos:station:wmo:42051:1,2003-02-03T19:30:00Z,29.6350,-93.6417,2.0,318.2841703,3.456356463,-99999.0,'11133222,11111222,99999999' 
TABS,ioos:station:wmo:42051:1,2003-02-03T20:00:00Z,29.6350,-93.6417,2.0,278.9966099,5.052148058,-99999.0,'11133222,11111222,99999999' 
TABS,ioos:station:wmo:42051:1,2003-02-03T20:30:00Z,29.6350,-93.6417,2.0,257.7724261,9.065649453,-99999.0,'11133222,11111222,99999999' 
TABS,ioos:station:wmo:42051:1,2003-02-03T21:00:00Z,29.6350,-93.6417,2.0,265.8330839,7.570006605,-99999.0,'11133222,11111222,99999999' 
TABS,ioos:station:wmo:42051:1,2003-02-03T21:30:00Z,29.6350,-93.6417,2.0,230.5703854,6.628612223,-99999.0,'11133222,11111222,99999999' 
TABS,ioos:station:wmo:42051:1,2003-02-03T22:00:00Z,29.6350,-93.6417,2.0,232.4378788,5.134374353,-99999.0,'11133222,11111222,99999999' 
TABS,ioos:station:wmo:42051:1,2003-02-03T22:30:00Z,29.6350,-93.6417,2.0,198.1118052,10.10047524,-99999.0,'11111222,11111222,99999999' 
TABS,ioos:station:wmo:42051:1,2003-02-03T23:00:00Z,29.6350,-93.6417,2.0,205.8930308,14.49518886,-99999.0,'11111222,11111222,99999999' 
TABS,ioos:station:wmo:42051:1,2003-02-03T23:30:00Z,29.6350,-93.6417,2.0,201.1983957,16.59279663,-99999.0,'11111222,11111222,99999999' 
TABS,ioos:station:wmo:42051:1,2003-02-04T00:00:00Z,29.6350,-93.6417,2.0,197.0757818,18.93471943,-99999.0,'11111222,11111222,99999999' 
TABS,ioos:station:wmo:42051:1,2003-02-04T00:30:00Z,29.6350,-93.6417,2.0,200.5590083,20.81576806,-99999.0,'11111222,11111222,99999999' 
TABS,ioos:station:wmo:42051:1,2003-02-04T01:00:00Z,29.6350,-93.6417,2.0,207.0512821,22.64771291,-99999.0,'11111222,11111222,99999999' 
TABS,ioos:station:wmo:42051:1,2003-02-04T01:30:00Z,29.6350,-93.6417,2.0,210.4623391,29.80416414,-99999.0,'11111222,11111222,99999999' 
TABS,ioos:station:wmo:42051:1,2003-02-04T02:00:00Z,29.6350,-93.6417,2.0,209.3466183,28.74946434,-99999.0,'11111222,11111222,99999999' 
TABS,ioos:station:wmo:42051:1,2003-02-04T02:30:00Z,29.6350,-93.6417,2.0,205.8585315,20.68072774,-99999.0,'11111222,11111222,99999999' 
TABS,ioos:station:wmo:42051:1,2003-02-04T03:00:00Z,29.6350,-93.6417,2.0,190.1955703,22.08881391,-99999.0,'11111222,11111222,99999999' 
TABS,ioos:station:wmo:42051:1,2003-02-04T03:30:00Z,29.6350,-93.6417,2.0,188.5116036,29.92966589,-99999.0,'11111222,11111222,99999999' 
TABS,ioos:station:wmo:42051:1,2003-02-04T04:00:00Z,29.6350,-93.6417,2.0,180.5758284,25.861307,-99999.0,'11111222,11111222,99999999' 
TABS,ioos:station:wmo:42051:1,2003-02-04T04:30:00Z,29.6350,-93.6417,2.0,183.1286548,29.31369816,-99999.0,'11111222,11111222,99999999' 
TABS,ioos:station:wmo:42051:1,2003-02-04T05:00:00Z,29.6350,-93.6417,2.0,188.4848538,32.86978248,-99999.0,'11111222,11111222,99999999' 
TABS,ioos:station:wmo:42051:1,2003-02-04T05:30:00Z,29.6350,-93.6417,2.0,200.5409413,36.13762582,-99999.0,'11111222,11111222,99999999' 
TABS,ioos:station:wmo:42051:1,2003-02-05T04:30:00Z,29.6350,-93.6417,2.0,280.0149736,10.06332947,-99999.0,'11111222,11111222,99999999' 
TABS,ioos:station:wmo:42051:1,2003-02-05T05:00:00Z,29.6350,-93.6417,2.0,271.803665,12.07598029,-99999.0,'11111222,11111222,99999999' 
TABS,ioos:station:wmo:42051:1,2003-02-05T05:30:00Z,29.6350,-93.6417,2.0,276.2135812,11.45729898,-99999.0,'11111222,11111222,99999999' 
TABS,ioos:station:wmo:42051:1,2003-02-05T06:00:00Z,29.6350,-93.6417,2.0,301.9141511,11.27415185,-99999.0,'11111222,11111222,99999999' 
TABS,ioos:station:wmo:42051:1,2003-02-05T06:30:00Z,29.6350,-93.6417,2.0,295.0067294,9.864709828,-99999.0,'11133222,11111222,99999999' 
TABS,ioos:station:wmo:42051:1,2003-02-05T07:00:00Z,29.6350,-93.6417,2.0,288.2735892,8.961930596,-99999.0,'11133222,11111222,99999999' 
TABS,ioos:station:wmo:42051:1,2003-02-05T07:30:00Z,29.6350,-93.6417,2.0,278.8409171,9.695179214,-99999.0,'11133222,11111222,99999999' 
TABS,ioos:station:wmo:42051:1,2003-02-05T08:00:00Z,29.6350,-93.6417,2.0,282.350647,12.52996409,-99999.0,'11111222,11111222,99999999' 
TABS,ioos:station:wmo:42051:1,2003-02-05T08:30:00Z,29.6350,-93.6417,2.0,282.1862441,14.49663754,-99999.0,'11111222,11111222,99999999' 
TABS,ioos:station:wmo:42051:1,2003-02-05T09:00:00Z,29.6350,-93.6417,2.0,280.9057325,16.38591163,-99999.0,'11111222,11111222,99999999' 
TABS,ioos:station:wmo:42051:1,2003-02-05T09:30:00Z,29.6350,-93.6417,2.0,284.3164188,15.89354901,-99999.0,'11111222,11111222,99999999' 
TABS,ioos:station:wmo:42051:1,2003-02-05T10:00:00Z,29.6350,-93.6417,2.0,277.6062659,20.24814312,-99999.0,'11111222,11111222,99999999' 
TABS,ioos:station:wmo:42051:1,2003-02-05T10:30:00Z,29.6350,-93.6417,2.0,281.6212401,27.10561012,-99999.0,'11111222,11111222,99999999' 
TABS,ioos:station:wmo:42051:1,2003-02-05T11:00:00Z,29.6350,-93.6417,2.0,270.2929727,25.46033189,-99999.0,'11111222,11111222,99999999' 
TABS,ioos:station:wmo:42051:1,2003-02-05T11:30:00Z,29.6350,-93.6417,2.0,277.4337781,25.12111861,-99999.0,'11111222,11111222,99999999' 
TABS,ioos:station:wmo:42051:1,2003-02-05T12:00:00Z,29.6350,-93.6417,2.0,277.7974795,27.4941903,-99999.0,'11111222,11111222,99999999' 
TABS,ioos:station:wmo:42051:1,2003-02-05T12:30:00Z,29.6350,-93.6417,2.0,276.701159,29.48138396,-99999.0,'11111222,11111222,99999999' 
TABS,ioos:station:wmo:42051:1,2003-02-05T13:00:00Z,29.6350,-93.6417,2.0,278.2677359,30.11293576,-99999.0,'11111222,11111222,99999999' 
TABS,ioos:station:wmo:42051:1,2003-02-05T13:30:00Z,29.6350,-93.6417,2.0,261.7766829,32.30209436,-99999.0,'11111222,11111222,99999999' 
TABS,ioos:station:wmo:42051:1,2003-02-05T14:00:00Z,29.6350,-93.6417,2.0,272.7741073,34.51043031,-99999.0,'11111222,11111222,99999999' 
TABS,ioos:station:wmo:42051:1,2003-02-05T14:30:00Z,29.6350,-93.6417,2.0,278.4297743,34.9273088,-99999.0,'11111222,11111222,99999999' 
TABS,ioos:station:wmo:42051:1,2003-02-05T15:00:00Z,29.6350,-93.6417,2.0,277.5494416,35.69941456,-99999.0,'11111222,11111222,99999999' 